Date String (YYYY-MM-DD hh:mm:ss) UTC,Instrument flags,absolute air pressure of the measurement (hPa),sample flow rate (lpm),inlet stack bypass flow (lpm),air temperature of the measurement (°C),ambient temperature measured by the external sensor (°C),aerosol sample conditioner tube jacket temperature (°C),OPC LED temperature (°C),internal box temperature (°C),relative humidity of the measurement (%),span deviation,mass concentration of particles derived from Lorenz-Mie calculation of OPC scattering (μg/m³),mass concentration of particles derived from Lorenz-Mie calculation of OPC scattering (μg/m³),mass concentration of particles derived from Lorenz-Mie calculation of OPC scattering (μg/m³)
DateTimeUTC,F1_M11,P_M11,Q1_M11,Q2_M11,T1_M11,T2_M11,T3_M11,T4_M11,T5_M11,U1_M11,ZSPAN_M11,X2_M11,X0_M11,X1_M11
2024-03-24 23:00:00,SystemResetWarning,0808.5,4.99,000.00,023.3,022.0,000.0,032.0,025.0,20.4,0000.0,0006.17,0008.16,0005.97
2024-03-24 23:01:00,SystemResetWarning,0808.6,4.99,000.00,023.2,022.0,000.0,032.0,025.0,20.5,0000.0,0006.02,0007.98,0005.85
2024-03-24 23:02:00,SystemResetWarning,0808.6,5.01,000.00,023.2,021.9,000.0,032.0,025.0,20.5,0000.0,0005.86,0007.79,0005.71
2024-03-24 23:03:00,SystemResetWarning,0808.5,5.01,000.00,023.2,021.9,000.0,032.0,024.9,20.5,0000.3,0005.75,0007.72,0005.60
2024-03-24 23:04:00,SystemResetWarning,0808.6,4.99,000.00,023.2,021.8,000.0,031.9,024.9,20.6,0000.4,0005.63,0007.59,0005.48
2024-03-24 23:05:00,SystemResetWarning,0808.6,5.00,000.00,023.1,021.9,000.0,031.9,024.9,20.6,0000.9,0005.49,0007.47,0005.35
2024-03-24 23:06:00,SystemResetWarning,0808.6,5.00,000.00,023.1,021.9,000.0,031.9,024.9,20.6,0000.5,0005.38,0007.37,0005.24
2024-03-24 23:07:00,SystemResetWarning,0808.6,5.00,000.00,023.1,021.8,000.0,031.9,024.9,20.6,0000.0,0005.25,0007.19,0005.12
2024-03-24 23:08:00,SystemResetWarning,0808.7,5.00,000.00,023.1,021.8,000.0,031.9,024.9,20.7,0000.0,0005.12,0006.95,0005.00
2024-03-24 23:09:00,SystemResetWarning,0808.7,5.00,000.00,023.1,021.8,000.0,031.9,024.9,20.7,0000.0,0005.03,0006.85,0004.90
2024-03-24 23:10:00,SystemResetWarning,0808.8,5.00,000.00,023.1,021.8,000.0,031.8,024.9,20.7,0000.0,0004.95,0006.79,0004.81
2024-03-24 23:11:00,SystemResetWarning,0808.8,5.00,000.00,023.0,021.8,000.0,031.8,024.9,20.7,0000.0,0004.90,0006.77,0004.75
2024-03-24 23:12:00,SystemResetWarning,0808.9,5.00,000.00,023.0,021.8,000.0,031.8,024.9,20.7,0000.0,0004.84,0006.95,0004.68
2024-03-24 23:13:00,SystemResetWarning,0808.9,5.00,000.00,023.0,021.8,000.0,031.8,024.9,20.7,0000.0,0004.82,0007.69,0004.64
2024-03-24 23:14:00,SystemResetWarning,0808.9,5.00,000.00,023.0,021.8,000.0,031.8,024.9,20.7,0000.0,0004.79,0007.66,0004.60
2024-03-24 23:15:00,SystemResetWarning,0808.9,5.01,000.00,023.0,021.8,000.0,031.8,024.9,20.7,0000.0,0004.74,0007.66,0004.56
2024-03-24 23:16:00,SystemResetWarning,0809.0,5.00,000.00,023.0,021.8,000.0,031.8,024.9,20.7,0000.0,0004.72,0007.68,0004.53
2024-03-24 23:17:00,SystemResetWarning,0809.0,5.00,000.00,023.0,021.8,000.0,031.7,024.9,20.7,0000.0,0004.69,0007.65,0004.50
2024-03-24 23:18:00,SystemResetWarning,0809.0,5.01,000.00,023.0,021.8,000.0,031.7,024.8,20.7,0000.0,0004.68,0007.68,0004.48
2024-03-24 23:19:00,SystemResetWarning,0809.1,4.99,000.00,023.0,021.8,000.0,031.7,024.8,20.7,0000.0,0004.68,0007.70,0004.47
2024-03-24 23:20:00,SystemResetWarning,0809.0,4.99,000.00,023.0,021.8,000.0,031.7,024.8,20.7,0000.0,0004.67,0007.72,0004.47
2024-03-24 23:21:00,SystemResetWarning,0809.1,5.00,000.00,022.9,021.8,000.0,031.7,024.8,20.7,0000.0,0004.67,0007.71,0004.47
2024-03-24 23:22:00,SystemResetWarning,0809.1,5.00,000.00,022.9,021.8,000.0,031.7,024.8,20.7,0000.0,0004.66,0007.68,0004.47
2024-03-24 23:23:00,SystemResetWarning,0809.1,5.00,000.00,022.9,021.8,000.0,031.7,024.8,20.7,0000.0,0004.66,0007.62,0004.48
2024-03-24 23:24:00,SystemResetWarning,0809.0,5.00,000.00,022.9,021.8,000.0,031.7,024.8,20.7,0000.0,0004.65,0006.64,0004.47
2024-03-24 23:25:00,SystemResetWarning,0809.0,5.00,000.00,022.9,021.8,000.0,031.7,024.8,20.7,0000.0,0004.62,0006.56,0004.46
2024-03-24 23:26:00,SystemResetWarning,0809.2,5.00,000.00,022.9,021.8,000.0,031.7,024.8,20.7,0000.0,0004.63,0006.64,0004.47
2024-03-24 23:27:00,SystemResetWarning,0809.1,5.00,000.00,022.9,021.8,000.0,031.6,024.8,20.6,0000.0,0004.64,0006.59,0004.48
2024-03-24 23:28:00,SystemResetWarning,0809.2,5.00,000.00,022.9,021.7,000.0,031.6,024.8,20.6,0000.0,0004.67,0006.67,0004.50
2024-03-24 23:29:00,SystemResetWarning,0809.1,4.99,000.00,022.9,021.7,000.0,031.6,024.7,20.7,0000.0,0004.70,0006.79,0004.54
2024-03-24 23:30:00,SystemResetWarning,0809.2,5.00,000.00,022.8,021.7,000.0,031.6,024.7,20.6,0000.0,0004.69,0006.75,0004.54
2024-03-24 23:31:00,SystemResetWarning,0809.3,5.00,000.00,022.8,021.7,000.0,031.6,024.7,20.6,0000.0,0004.70,0006.84,0004.54
2024-03-24 23:32:00,SystemResetWarning,0809.2,5.00,000.00,022.8,021.7,000.0,031.6,024.7,20.6,0000.0,0004.69,0006.73,0004.53
2024-03-24 23:33:00,SystemResetWarning,0809.3,5.01,000.00,022.8,021.6,000.0,031.6,024.6,20.7,0000.0,0004.69,0006.67,0004.54
2024-03-24 23:34:00,SystemResetWarning,0809.2,4.99,000.00,022.8,021.6,000.0,031.6,024.7,20.7,0000.0,0004.70,0006.71,0004.55
2024-03-24 23:35:00,SystemResetWarning,0809.2,5.00,000.00,022.8,021.6,000.0,031.5,024.7,20.7,0000.0,0004.73,0006.81,0004.57
2024-03-24 23:36:00,SystemResetWarning,0809.3,5.00,000.00,022.8,021.6,000.0,031.5,024.7,20.7,0000.0,0004.76,0006.93,0004.60
2024-03-24 23:37:00,SystemResetWarning,0809.2,5.00,000.00,022.8,021.6,000.0,031.5,024.6,20.7,0000.0,0004.80,0006.98,0004.65
2024-03-24 23:38:00,SystemResetWarning,0809.2,5.00,000.00,022.7,021.6,000.0,031.5,024.6,20.7,0000.0,0004.82,0006.98,0004.67
2024-03-24 23:39:00,SystemResetWarning,0809.3,5.00,000.00,022.7,021.5,000.0,031.5,024.6,20.7,0000.0,0004.85,0006.92,0004.71
2024-03-24 23:40:00,SystemResetWarning,0809.3,5.00,000.00,022.7,021.5,000.0,031.5,024.6,20.8,0000.0,0004.90,0006.97,0004.76
2024-03-24 23:41:00,SystemResetWarning,0809.3,4.99,000.00,022.7,021.5,000.0,031.5,024.6,20.8,0000.0,0004.97,0007.15,0004.83
2024-03-24 23:42:00,SystemResetWarning,0809.4,5.00,000.00,022.7,021.5,000.0,031.5,024.6,20.7,0000.0,0005.03,0007.16,0004.88
2024-03-24 23:43:00,SystemResetWarning,0809.4,5.00,000.00,022.7,021.5,000.0,031.4,024.5,20.8,0000.0,0005.10,0007.32,0004.94
2024-03-24 23:44:00,SystemResetWarning,0809.4,4.99,000.00,022.6,021.5,000.0,031.4,024.5,20.7,0000.0,0005.15,0007.37,0005.00
2024-03-24 23:45:00,SystemResetWarning,0809.5,5.01,000.00,022.6,021.4,000.0,031.4,024.5,20.7,0000.0,0005.21,0007.43,0005.05
2024-03-24 23:46:00,SystemResetWarning,0809.5,5.01,000.00,022.6,021.4,000.0,031.4,024.5,20.7,0000.0,0005.25,0007.43,0005.09
2024-03-24 23:47:00,SystemResetWarning,0809.5,5.00,000.00,022.6,021.4,000.0,031.4,024.4,20.7,0000.0,0005.25,0007.40,0005.10
2024-03-24 23:48:00,SystemResetWarning,0809.6,4.98,000.00,022.6,021.3,000.0,031.4,024.4,20.7,0000.0,0005.26,0007.36,0005.11
2024-03-24 23:49:00,SystemResetWarning,0809.5,4.99,000.00,022.5,021.3,000.0,031.3,024.4,20.8,0000.0,0005.29,0007.40,0005.13
2024-03-24 23:50:00,SystemResetWarning,0809.6,5.01,000.00,022.5,021.3,000.0,031.3,024.3,20.7,0000.0,0005.32,0007.49,0005.13
2024-03-24 23:51:00,SystemResetWarning,0809.6,5.01,000.00,022.5,021.2,000.0,031.3,024.3,20.8,0000.0,0005.30,0007.48,0005.10
2024-03-24 23:52:00,SystemResetWarning,0809.5,5.00,000.00,022.5,021.2,000.0,031.3,024.3,20.8,0000.0,0005.29,0007.45,0005.09
2024-03-24 23:53:00,SystemResetWarning,0809.6,5.00,000.00,022.4,021.2,000.0,031.3,024.3,20.8,0000.0,0005.27,0007.43,0005.08
2024-03-24 23:54:00,SystemResetWarning,0809.5,5.00,000.00,022.4,021.2,000.0,031.3,024.2,20.8,0000.0,0005.22,0007.37,0005.05
2024-03-24 23:55:00,SystemResetWarning,0809.6,5.00,000.00,022.4,021.1,000.0,031.2,024.2,20.8,0000.0,0005.17,0007.39,0005.01
2024-03-24 23:56:00,SystemResetWarning,0809.7,5.00,000.00,022.3,021.1,000.0,031.2,024.2,20.8,0000.0,0005.15,0007.40,0004.98
2024-03-24 23:57:00,SystemResetWarning,0809.7,5.00,000.00,022.3,021.1,000.0,031.2,024.2,20.9,0000.0,0005.11,0007.34,0004.96
2024-03-24 23:58:00,SystemResetWarning,0809.7,5.01,000.00,022.3,021.1,000.0,031.2,024.2,20.9,0000.0,0005.08,0007.32,0004.93
2024-03-24 23:59:00,SystemResetWarning,0809.7,5.00,000.00,022.3,021.0,000.0,031.2,024.1,20.8,0000.0,0005.02,0007.40,0004.87
